Location: ??????????
(54.8537°N, 38.8755°E)
Time: 07:03:39
(UTC+00:00)

Altair - Visible Passes

Search period start: 19 September 2024 00:00
Search period end: 29 September 2024 00:00
Orbit: 1501 x 1682 km, 47.2° (Epoch: 18 September)

Date Brightness Start Highest point End Pass type
(mag) Time Alt. Az. Time Alt. Az. Time Alt. Az.
19 Sep 8.0 00:13:36 34° SSW 00:17:37 49° SSE 00:27:13 10° E visible
19 Sep 8.0 02:11:46 10° W 02:21:31 56° S 02:31:20 10° ESE visible
19 Sep 8.8 21:51:42 23° ESE 21:51:42 23° ESE 21:56:58 10° E visible
19 Sep 7.9 23:49:42 39° SSW 23:52:27 48° SSE 00:01:59 10° E visible
20 Sep 7.9 01:47:43 14° WSW 01:56:19 57° S 02:06:09 10° ESE visible
20 Sep 9.0 21:27:47 19° ESE 21:27:47 19° ESE 21:31:36 10° E visible
20 Sep 7.9 23:25:47 43° S 23:27:18 46° SSE 23:36:45 10° E visible
21 Sep 7.9 01:23:48 20° WSW 01:31:08 57° S 01:40:58 10° ESE visible
21 Sep 9.2 21:03:52 15° E 21:03:52 15° E 21:06:11 10° E visible
21 Sep 7.9 23:01:53 44° SSE 23:02:08 44° SSE 23:11:31 10° E visible
22 Sep 7.8 00:59:53 26° WSW 01:05:56 57° S 01:15:46 10° ESE visible
22 Sep 9.4 20:39:58 12° E 20:39:58 12° E 20:40:44 10° E visible
22 Sep 8.1 22:37:59 42° SE 22:37:59 42° SE 22:46:17 10° E visible
23 Sep 7.8 00:35:59 33° WSW 00:40:44 57° S 00:50:34 10° ESE visible
23 Sep 8.1 02:35:09 10° W 02:44:35 46° SSW 02:54:02 10° SE visible
23 Sep 8.3 22:14:06 37° SE 22:14:06 37° SE 22:21:02 10° E visible
24 Sep 7.7 00:12:06 41° SW 00:15:32 57° S 00:25:22 10° ESE visible
24 Sep 8.0 02:10:06 11° W 02:19:25 48° SSW 02:28:56 10° SE visible
24 Sep 8.5 21:50:13 31° ESE 21:50:13 31° ESE 21:55:46 10° E visible
24 Sep 7.7 23:48:14 49° SSW 23:50:21 56° S 00:00:10 10° E visible
25 Sep 8.0 01:46:15 16° W 01:54:15 49° SSW 02:03:49 10° SE visible
25 Sep 8.8 21:26:22 25° ESE 21:26:22 25° ESE 21:30:31 10° E visible
25 Sep 7.6 23:24:23 55° S 23:25:09 56° S 23:34:57 10° E visible
26 Sep 7.9 01:22:24 21° W 01:29:04 51° SSW 01:38:42 10° SE visible
26 Sep 9.1 21:02:34 19° E 21:02:34 19° E 21:05:14 10° E visible
26 Sep 7.7 23:00:35 54° SSE 23:00:35 54° SSE 23:09:44 10° E visible
27 Sep 7.8 00:58:36 28° WSW 01:03:53 52° SSW 01:13:34 10° ESE visible
27 Sep 9.3 20:38:48 14° E 20:38:48 14° E 20:39:58 10° E visible
27 Sep 7.9 22:36:50 48° SE 22:36:50 48° SE 22:44:31 10° E visible
28 Sep 7.8 00:34:51 37° WSW 00:38:42 53° SSW 00:48:25 10° ESE visible
28 Sep 8.4 02:33:39 10° W 02:42:06 32° SW 02:50:35 10° SSE visible
28 Sep 8.3 22:13:08 38° ESE 22:13:08 38° ESE 22:19:17 10° E visible
